FW5316 Weather Reports


Display with metric or nautical units.
time (UTC)temp
F
wind
direction
speed
MPH
gust
MPH
rain 1hr
in
rain 24hr
in
rain mn
in
humidity
%
barometer
mb
20260506110016 56 0.0 0.0 0.00 0.08 0.00 77 1018.0
20260506105035 56 0.0 0.0 0.00 0.08 0.00 77 1018.0
20260506104037 56 0.0 0.0 0.00 0.08 0.00 77 1018.0
20260506103016 56 0.0 0.0 0.00 0.08 0.00 78 1018.0
20260506102016 56 0.0 0.0 0.00 0.08 0.00 78 1018.0
20260506101016 56 0.0 0.0 0.00 0.08 0.00 78 1017.9
20260506100017 56 0.0 0.0 0.00 0.08 0.00 78 1017.9
20260506095018 55 0.0 0.0 0.00 0.08 0.00 78 1017.9
20260506094017 55 0.0 0.0 0.00 0.08 0.00 78 1017.9
20260506093017 55 0.0 0.0 0.00 0.08 0.00 78 1017.8
20260506092016 56 0.0 0.0 0.00 0.08 0.00 78 1017.8
20260506091017 56 0.0 0.0 0.00 0.08 0.00 78 1018.0
20260506090016 56 0.0 0.0 0.00 0.09 0.00 77 1018.1
20260506085016 56 0.0 0.0 0.00 0.09 0.00 77 1018.3
20260506084016 56 0.0 0.0 0.00 0.09 0.00 77 1018.4
20260506083017 56 0.0 0.0 0.00 0.09 0.00 78 1018.5
20260506082036 56 0.0 0.0 0.00 0.09 0.00 77 1018.5
20260506081016 56 0.0 0.0 0.00 0.10 0.00 77 1018.6
20260506073036 57 0.0 0.0 0.00 0.17 0.00 76 1018.8
20260506072016 57 0.0 0.0 0.00 0.18 0.00 76 1018.8
20260506071016 57 0.0 0.0 0.00 0.18 0.00 76 1018.8
20260506062015 58 0.0 0.0 0.00 0.18 0.18 74 1018.5
20260506061015 58 0.0 0.0 0.00 0.18 0.18 74 1018.4
20260506051017 59 303 2.0 5.0 0.00 0.18 0.18 72 1018.3
20260506045017 60 296 1.0 4.0 0.00 0.18 0.18 72 1018.1
20260506044017 60 297 2.0 6.0 0.00 0.18 0.18 71 1018.0
20260506043037 60 300 1.0 7.0 0.00 0.18 0.18 71 1017.9
20260506042016 60 287 1.0 4.0 0.00 0.18 0.18 70 1017.7
20260506041017 60 290 0.0 4.0 0.00 0.18 0.18 70 1017.5
20260506040016 60 310 1.0 4.0 0.00 0.18 0.18 70 1017.4
20260506035017 60 302 2.0 5.0 0.00 0.18 0.18 70 1017.2
20260506034017 61 305 2.0 9.0 0.00 0.18 0.18 69 1017.1
20260506033017 61 297 2.0 7.0 0.00 0.18 0.18 69 1017.0
20260506032057 61 318 3.0 8.0 0.00 0.18 0.18 69 1016.9
20260506031017 61 319 4.0 10.0 0.00 0.18 0.18 69 1016.8
20260506030017 61 310 3.0 10.0 0.00 0.18 0.18 68 1016.7
20260506025035 62 289 4.0 8.0 0.00 0.18 0.18 68 1016.6
20260506024016 62 283 2.0 8.0 0.00 0.18 0.18 67 1016.4
20260506023016 63 280 3.0 10.0 0.00 0.18 0.18 66 1016.3
20260506022017 63 300 3.0 9.0 0.00 0.18 0.18 66 1016.1
20260506021016 64 288 5.0 10.0 0.00 0.18 0.18 65 1016.0
20260506020016 64 302 5.0 12.0 0.00 0.18 0.18 64 1016.0
20260506015016 64 284 5.0 11.0 0.00 0.18 0.18 63 1016.0
20260506014017 65 277 3.0 10.0 0.00 0.18 0.18 62 1015.9
20260506013017 65 289 5.0 12.0 0.00 0.18 0.18 61 1015.8
20260506012016 65 271 5.0 12.0 0.00 0.18 0.18 60 1015.8
20260506011016 66 286 6.0 12.0 0.00 0.18 0.18 60 1015.8
20260506010016 66 257 5.0 12.0 0.00 0.18 0.18 59 1015.8
20260506005016 66 276 5.0 11.0 0.00 0.18 0.18 59 1015.7
20260506004016 66 299 5.0 11.0 0.00 0.18 0.18 59 1015.6
20260506003018 66 266 4.0 11.0 0.00 0.18 0.18 59 1015.6
20260506002016 67 269 5.0 11.0 0.00 0.18 0.18 58 1015.6
20260506001040 67 274 5.0 14.0 0.00 0.18 0.18 56 1015.6
20260506000017 68 297 5.0 13.0 0.00 0.18 0.18 56 1015.6
20260505235016 68 274 6.0 14.0 0.00 0.18 0.18 53 1015.6
20260505234036 68 266 6.0 14.0 0.00 0.18 0.18 56 1015.6
20260505233016 68 280 6.0 14.0 0.00 0.18 0.18 55 1015.6
20260505232017 68 274 6.0 15.0 0.00 0.18 0.18 54 1015.6
20260505231016 69 271 7.0 13.0 0.00 0.18 0.18 52 1015.6
20260505230016 69 272 7.0 15.0 0.00 0.18 0.18 51 1015.7
20260505225016 70 251 7.0 16.0 0.00 0.18 0.18 51 1015.7
20260505224016 71 274 7.0 14.0 0.00 0.18 0.18 50 1015.8
20260505223016 71 284 8.0 17.0 0.00 0.18 0.18 51 1015.9
20260505222016 72 271 7.0 14.0 0.00 0.18 0.18 49 1015.9
20260505221016 72 275 7.0 14.0 0.00 0.18 0.18 50 1015.9
20260505220016 73 271 4.0 16.0 0.00 0.18 0.18 48 1016.0
20260505215016 73 279 8.0 15.0 0.00 0.18 0.18 48 1016.0
20260505214036 73 286 8.0 15.0 0.00 0.18 0.18 48 1016.3
20260505213036 73 270 7.0 14.0 0.00 0.18 0.18 51 1016.3
20260505212016 73 272 6.0 16.0 0.00 0.18 0.18 52 1016.4
20260505211036 73 271 8.0 15.0 0.00 0.18 0.18 52 1016.5
20260505210016 73 276 7.0 13.0 0.00 0.18 0.18 53 1016.5
20260505205016 72 264 6.0 13.0 0.00 0.18 0.18 52 1016.5
20260505204016 73 274 6.0 13.0 0.00 0.18 0.18 51 1016.5
20260505203016 73 282 8.0 13.0 0.00 0.18 0.18 52 1016.5
20260505202016 72 296 6.0 16.0 0.00 0.18 0.18 54 1016.5
20260505201016 72 281 9.0 15.0 0.00 0.18 0.18 55 1016.5
20260505200016 73 267 7.0 21.0 0.00 0.18 0.18 54 1016.5
20260505195016 72 276 6.0 14.0 0.00 0.18 0.18 54 1016.6
20260505194016 72 292 8.0 16.0 0.00 0.18 0.18 56 1016.7
20260505193036 73 278 8.0 15.0 0.00 0.18 0.18 55 1016.7
20260505192016 72 287 7.0 14.0 0.00 0.18 0.18 56 1016.7
20260505191016 71 277 6.0 17.0 0.00 0.18 0.18 56 1016.8
20260505190016 71 283 8.0 16.0 0.00 0.18 0.18 56 1016.8
20260505185016 71 276 7.0 14.0 0.00 0.18 0.18 59 1016.7
20260505184016 70 290 5.0 14.0 0.00 0.18 0.18 59 1016.8
20260505183016 70 287 8.0 17.0 0.00 0.18 0.18 60 1016.8
20260505182016 69 287 6.0 15.0 0.00 0.18 0.18 61 1016.7
20260505181016 67 271 5.0 13.0 0.00 0.18 0.18 66 1016.6
20260505180036 65 282 7.0 12.0 0.00 0.18 0.18 67 1016.6
20260505175016 64 266 3.0 13.0 0.00 0.18 0.18 70 1016.5
20260505174016 63 277 6.0 13.0 0.00 0.18 0.18 72 1016.3
20260505173036 62 269 5.0 10.0 0.00 0.18 0.18 72 1016.3
20260505172015 62 279 5.0 13.0 0.00 0.18 0.18 74 1016.2
20260505171016 62 299 5.0 12.0 0.00 0.18 0.18 75 1016.2
20260505170016 63 262 4.0 10.0 0.00 0.18 0.18 76 1016.1
20260505165036 63 289 5.0 11.0 0.00 0.18 0.18 78 1016.0
20260505164015 61 292 3.0 9.0 0.00 0.18 0.18 84 1015.9
20260505163015 60 284 4.0 11.0 0.00 0.18 0.18 90 1015.8
20260505162056 59 287 2.0 5.0 0.00 0.18 0.18 90 1015.8
20260505161016 58 0.0 0.0 0.00 0.18 0.18 91 1015.8
20260505153016 57 0.0 0.0 0.01 0.18 0.18 93 1015.6
20260505152016 57 0.0 0.0 0.01 0.18 0.18 93 1015.6
20260505151015 57 0.0 0.0 0.01 0.18 0.18 93 1015.6
20260505125015 56 314 2.0 6.0 0.00 0.11 0.11 91 1014.4
20260505124015 56 263 2.0 6.0 0.01 0.11 0.11 91 1014.3
20260505123015 57 259 1.0 2.0 0.01 0.11 0.11 91 1014.4
20260505122015 57 0.0 0.0 0.01 0.11 0.11 91 1014.3
20260505121015 57 258 0.0 3.0 0.01 0.11 0.11 90 1014.3
20260505120017 57 251 1.0 3.0 0.01 0.11 0.11 90 1014.2
20260505115015 57 245 1.0 5.0 0.01 0.11 0.11 90 1014.2
20260505114015 57 258 1.0 4.0 0.00 0.10 0.10 91 1014.1
20260505113015 57 260 1.0 3.0 0.00 0.10 0.10 90 1014.0
20260505112016 57 0.0 0.0 0.00 0.10 0.10 90 1014.0
20260505111036 57 259 0.0 2.0 0.00 0.10 0.10 90 1014.1